Simultaneous Nadir Overpasses (SNOs) Predictions

Prediction of SNOs between GOES-16 and AQUA Satellite Orbit:

Table of predicted SNOs for the next 14.0 days since TLE Epoch: 8/14/2021
Index Date Time (GOES-16) GOES-16 Lat,Lon AQUA Lat,Lon Distance(km) Time Diff (sec)
1 08/15/2021 18:35:18 0.12, -75.23 0.21, -74.66 64.99 80
2 08/17/2021 18:23:07 0.13, -75.24 0.88, -71.71 402.01 80
3 08/18/2021 06:44:22 -0.13, -75.25 0.22, -76.86 183.73 80
4 08/20/2021 06:29:31 -0.14, -75.26 -0.46, -73.91 153.96 80
5 08/20/2021 18:50:54 0.14, -75.26 -0.68, -79.10 436.62 80
6 08/22/2021 06:17:19 -0.14, -75.28 -1.07, -70.95 492.54 80
7 08/22/2021 18:38:42 0.15, -75.28 -0.06, -76.14 97.67 80
8 08/24/2021 18:29:11 0.15, -75.32 0.63, -73.19 242.41 80
9 08/25/2021 06:50:26 -0.15, -75.33 0.48, -78.34 342.17 80
10 08/27/2021 06:35:34 -0.15, -75.37 -0.15, -75.38 1.32 80
